Location: ???????????
(54.6970°N, 39.1477°E)
Time: 13:56:09
(UTC+00:00)

Cosmos 2221 - Pass Details

Date: 19 May 2025
Orbit: 572 x 593 km, 82.5° (Epoch: 20 June)

Event Time Altitude Azimuth Distance (km) Brightness Sun altitude
Exits shadow 18:24:57 - 142° (SE) 2,032 4.5 -6.5°
Reaches altitude 10° 18:25:23 10° 138° (SE) 1,893 4.4 -6.6°
Maximum altitude 18:28:38 22° 87° (E) 1,270 3.8 -6.9°
Drops below altitude 10° 18:31:54 10° 36° (NE) 1,898 5.3 -7.2°
Sets 18:34:26 0° 21° (NNE) 2,800 6.4 -7.4°
